Theta_e
334 339 342 347 351 352 352 353 354 353 353 353 354 353 352 351 350 349 348 347 348 347 347 347 347 347 347 348 348 348 347 348 348 348 348 348 348 349 349 350 350 349 350 349 349 349 349 348 347 347 346 346 346 346 346 347 346 347 347 348 348 348 350 350 350 349 349 350 349 349 349 350 351 352 351 352 351 352 351 351 350 349 348 351 353
335 338 342 345 350 352 353 353 354 353 353 354 353 353 352 350 350 349 348 348 347 347 347 347 347 347 347 347 347 346 347 347 348 348 348 348 349 349 349 349 349 349 349 348 348 347 346 346 346 345 344 344 343 343 345 345 346 345 346 347 347 348 348 348 349 348 349 348 348 348 349 349 349 351 352 351 351 352 350 350 350 347 346 352 352
336 338 342 345 349 351 352 353 354 352 352 353 353 353 352 351 349 348 348 347 347 347 347 347 347 347 348 348 348 348 348 348 348 348 348 348 348 348 348 348 348 347 347 347 347 346 346 344 343 343 343 342 341 341 341 342 343 344 344 345 346 346 346 346 347 347 347 346 345 345 345 347 348 348 349 350 351 351 349 350 350 349 348 351 351
335 338 343 345 346 349 352 353 353 352 352 352 353 352 352 350 349 348 348 347 347 347 347 347 347 348 348 348 348 348 348 348 348 348 348 348 348 347 347 347 347 346 346 346 346 345 343 342 340 340 340 339 339 339 338 338 339 340 342 343 343 344 344 344 344 344 344 343 343 341 341 336 342 348 349 349 350 348 349 349 349 349 351 350 349
335 339 343 345 346 347 351 352 353 353 353 352 352 352 350 349 348 348 347 347 347 347 347 347 348 348 348 348 348 348 348 348 348 347 348 347 347 347 346 346 346 346 345 345 344 343 342 341 340 338 337 336 336 336 336 336 336 337 338 340 341 342 342 342 342 341 342 342 340 338 336 337 338 346 345 346 346 347 348 347 348 349 349 349 350
336 340 343 345 345 346 349 352 353 353 352 352 351 351 350 349 349 347 347 348 347 347 348 348 348 348 349 348 348 348 348 348 347 347 347 347 346 346 345 346 345 344 344 344 342 341 340 339 339 337 335 334 334 333 334 334 335 335 335 336 338 340 340 340 340 340 339 339 335 332 335 336 338 344 347 348 347 346 345 345 345 348 349 349 349
337 340 343 344 344 345 346 352 353 353 352 352 351 350 350 349 349 347 347 347 348 347 347 348 348 348 348 349 349 348 348 348 348 347 347 347 346 344 343 343 343 342 342 341 340 339 338 338 337 336 334 331 331 331 332 332 332 332 333 333 334 336 338 338 337 337 337 331 324 330 337 337 337 339 347 347 347 347 347 347 347 348 349 348 348
337 340 342 343 344 344 346 351 353 352 352 352 351 350 349 349 348 347 348 348 347 347 347 348 348 348 348 349 348 348 348 348 347 346 344 344 343 342 341 341 341 339 339 339 338 338 337 336 335 334 333 332 331 330 330 330 330 330 330 330 332 333 336 335 335 337 335 327 335 338 338 337 337 339 346 346 346 347 347 347 347 347 346 346 345
337 339 342 343 343 343 345 349 352 352 352 352 351 350 349 349 348 347 348 347 347 347 347 347 348 348 348 349 347 348 348 347 346 343 343 342 341 340 339 339 338 338 337 337 337 335 335 335 334 332 332 330 329 329 328 328 328 328 328 329 331 332 334 335 336 334 330 332 337 337 338 336 336 338 345 345 346 345 344 344 345 345 345 344 343
336 339 341 342 343 342 344 349 352 352 352 352 351 350 349 348 349 348 348 347 347 347 347 347 347 348 349 348 348 348 346 345 344 343 342 341 340 339 338 337 336 335 335 335 335 334 334 335 333 332 330 329 328 327 327 326 326 325 326 328 331 332 334 335 332 331 327 331 335 334 334 340 335 336 344 345 344 343 342 342 342 341 342 342 344
336 338 340 341 341 342 346 349 350 351 351 352 351 350 349 348 349 348 347 347 347 347 347 347 348 348 349 348 347 347 346 345 343 342 341 340 339 338 338 336 335 334 334 333 334 333 333 333 332 331 330 327 327 326 325 325 325 325 326 328 330 332 335 332 329 323 326 331 332 332 339 341 332 334 343 343 343 342 341 341 341 341 341 341 342
336 338 340 340 339 341 345 348 350 351 350 351 351 350 349 348 349 348 348 347 347 347 347 347 348 348 348 347 348 347 346 345 343 342 340 339 338 337 336 336 334 334 333 333 332 333 333 332 332 329 327 325 324 325 324 324 324 325 325 328 330 331 332 329 324 323 326 327 328 329 331 333 332 338 341 341 341 341 340 340 340 340 340 340 340
335 337 339 339 339 339 343 348 348 350 350 351 351 350 349 349 348 348 348 348 347 347 347 347 347 347 348 348 347 346 346 344 342 341 340 339 339 338 337 336 336 334 333 333 332 332 332 332 331 328 326 325 324 325 323 322 323 323 325 327 328 329 329 327 320 322 322 322 324 324 325 328 331 339 339 339 339 338 338 339 339 339 339 339 338
334 335 337 339 340 337 341 345 346 349 350 351 350 349 349 349 349 348 348 348 347 347 347 348 347 348 348 347 347 346 346 344 342 341 340 340 339 338 337 335 336 334 333 333 332 331 331 331 330 327 325 323 324 322 322 322 322 323 324 325 325 327 325 322 323 318 321 321 322 322 323 327 328 337 336 336 336 336 336 336 336 336 336 336 336
334 333 336 338 339 339 337 341 343 345 347 349 349 348 349 349 348 348 348 348 347 347 347 348 348 348 348 347 347 346 346 344 343 341 340 339 338 338 337 336 335 334 333 333 332 331 331 331 329 327 325 323 324 323 322 322 322 322 323 324 324 325 322 314 317 315 319 321 319 321 321 324 337 336 335 335 334 335 334 334 334 334 334 334 334
333 333 334 337 338 339 339 338 340 342 343 345 346 346 347 347 348 348 348 347 347 347 347 347 348 348 348 347 347 346 345 343 342 341 340 339 339 338 337 335 335 334 333 332 331 330 330 330 329 326 324 323 324 323 321 321 320 320 322 322 322 324 321 317 314 314 315 318 318 320 320 325 336 335 335 334 333 332 332 332 332 332 332 333 332
329 332 334 335 336 338 340 341 339 337 338 340 341 343 344 346 347 347 347 346 346 347 347 347 347 347 348 347 346 345 344 343 343 342 341 340 338 337 336 335 335 333 332 332 331 330 330 329 328 325 324 323 323 321 321 320 320 319 320 320 320 323 320 316 313 312 315 317 318 318 320 323 332 334 334 334 333 331 331 330 330 329 329 331 332
326 332 334 334 335 337 339 340 341 340 343 339 336 339 341 344 344 344 344 344 344 345 345 345 345 345 344 343 342 341 341 342 341 341 339 338 338 337 337 335 334 333 331 331 331 330 329 328 327 325 324 323 322 320 319 318 318 318 318 317 319 320 317 314 311 312 315 318 314 318 318 334 331 332 332 332 331 329 329 329 329 328 327 328 328
323 331 332 333 334 335 337 339 339 341 343 344 343 340 336 339 341 341 341 342 342 342 342 342 341 341 341 339 338 336 335 336 336 336 337 335 333 331 335 335 333 332 331 331 331 329 329 327 327 325 324 322 322 320 318 316 316 317 316 316 316 314 313 312 309 311 311 314 313 314 318 331 330 331 330 331 330 330 329 328 328 327 327 326 327
321 324 329 331 333 334 336 337 339 341 343 344 344 343 335 334 338 340 339 340 339 339 339 339 335 333 334 333 331 333 330 332 328 331 330 333 330 327 330 334 333 332 331 330 330 329 328 327 326 325 324 322 320 317 315 313 314 314 314 315 312 308 302 304 306 308 310 313 314 313 328 328 329 330 330 329 328 328 328 326 326 326 326 326 326
320 320 324 329 330 333 334 335 337 339 342 343 344 343 341 333 334 334 334 335 336 335 336 333 328 327 328 327 325 334 333 333 329 330 324 328 322 323 328 333 333 332 331 330 330 329 328 327 326 326 324 322 317 315 313 312 313 312 312 313 307 298 301 304 307 307 307 309 312 315 329 327 328 329 329 328 328 328 327 327 327 327 327 326 326
321 321 320 325 330 332 333 335 336 338 340 342 343 344 342 335 341 339 336 335 332 330 333 336 328 333 327 330 330 330 332 331 329 326 326 324 322 321 324 329 332 331 330 330 329 329 328 327 326 325 323 320 314 298 300 309 311 309 310 309 296 296 300 303 304 305 306 307 310 320 328 326 327 328 328 328 328 327 327 326 326 325 325 325 326
318 319 321 323 328 331 332 334 335 337 339 340 342 342 342 340 341 341 339 333 332 332 335 333 333 332 330 330 327 327 329 328 327 324 323 320 321 320 322 326 330 329 328 330 330 329 328 326 326 324 322 316 301 294 293 291 293 306 302 295 294 295 298 301 302 303 304 307 305 325 327 326 327 328 328 327 327 327 326 326 325 325 325 324 324
320 321 323 324 325 328 330 333 333 335 337 339 340 341 341 340 341 341 340 338 335 333 334 333 332 331 329 328 326 326 327 326 322 319 320 320 320 319 321 322 324 324 323 324 327 328 327 326 325 324 316 303 295 295 293 291 288 289 293 293 293 294 297 300 302 301 301 307 305 323 326 326 327 326 326 326 327 326 326 326 325 325 324 324 324
320 319 318 323 324 326 328 330 331 333 335 337 338 340 340 340 340 340 340 339 337 335 335 333 331 329 328 326 324 324 325 324 322 321 320 319 317 317 319 319 318 317 319 315 314 316 320 313 316 311 300 299 295 294 293 291 290 290 293 294 294 293 296 298 300 300 299 302 307 320 323 327 326 325 327 326 326 325 326 326 325 324 324 323 323
313 317 320 322 323 325 326 328 329 332 334 336 337 338 338 339 339 339 338 338 337 336 335 334 332 329 327 325 323 322 322 322 320 319 318 318 318 317 316 315 313 315 313 314 311 312 310 310 307 304 299 297 296 294 293 291 288 290 292 294 293 293 294 296 299 300 299 300 305 319 321 324 326 326 327 327 326 326 325 325 325 324 323 323 322
312 316 318 320 323 324 325 325 327 329 331 333 335 336 337 338 338 338 337 337 337 335 334 334 332 329 326 324 323 322 321 320 319 318 317 319 319 318 317 315 314 313 311 312 311 310 309 306 304 304 298 297 295 294 293 293 289 290 292 294 293 293 293 296 299 300 298 299 306 316 319 322 325 327 327 327 325 326 325 325 324 323 323 322 322
310 314 315 318 320 323 325 325 326 327 329 332 333 335 336 337 337 335 336 335 335 335 335 334 332 329 326 324 323 323 321 319 319 319 318 318 318 318 317 315 312 312 310 312 311 307 306 306 304 300 299 296 295 293 294 294 291 291 293 293 293 292 292 294 297 298 297 297 300 308 317 321 324 326 327 327 326 326 325 325 325 324 323 322 322
308 312 314 316 319 321 323 325 326 325 327 331 333 334 335 336 336 335 336 332 335 335 335 334 331 329 327 325 323 322 320 320 319 320 318 318 317 316 315 315 312 311 310 309 310 309 306 305 305 303 300 299 294 293 294 294 292 292 293 293 293 292 292 292 296 297 297 296 297 302 315 319 324 324 326 327 327 325 326 325 325 323 323 322 322
306 309 312 316 319 320 322 324 325 326 325 327 331 332 333 334 335 335 336 333 335 336 334 333 332 329 326 325 323 323 320 319 318 317 317 317 316 316 315 315 314 312 310 310 308 309 307 303 302 303 301 299 296 295 294 294 293 293 292 293 293 294 292 292 294 296 296 296 296 299 311 315 320 324 325 326 326 325 326 326 324 324 323 323 322
303 303 310 315 317 319 321 323 324 323 323 324 327 329 328 331 333 334 334 334 334 334 333 332 331 329 328 325 323 323 321 319 318 316 316 315 314 314 314 312 312 311 310 311 307 308 306 306 304 302 301 299 297 293 294 294 293 293 293 293 294 292 293 292 294 295 296 297 295 297 301 311 316 319 322 324 325 325 326 326 325 325 324 323 323
302 302 304 311 315 319 321 321 323 322 322 323 323 325 326 327 328 330 332 332 332 332 331 331 328 329 327 325 324 323 321 320 319 316 315 313 312 312 311 311 311 309 309 309 307 306 306 304 301 300 298 297 296 293 293 293 292 294 292 293 291 292 292 292 294 296 296 295 295 296 297 301 311 316 319 323 324 325 326 325 325 325 324 324 323
302 303 303 311 314 315 319 319 321 320 322 323 323 324 324 324 324 327 328 328 328 328 329 329 329 328 326 325 324 323 320 320 318 317 314 313 312 311 310 310 311 310 309 307 306 303 301 299 298 296 295 293 293 293 292 291 292 292 292 293 291 292 292 292 294 296 297 297 296 296 295 298 299 310 313 317 322 322 324 324 325 325 325 324 324
301 303 304 308 311 315 317 318 319 320 321 322 320 320 321 322 322 322 323 323 325 325 325 325 325 325 324 323 322 321 319 317 316 314 314 313 311 311 310 309 309 308 308 307 306 302 302 299 298 294 296 294 293 292 291 291 290 290 292 292 291 293 292 292 291 296 296 297 297 295 296 295 296 298 302 312 315 321 322 323 323 324 324 323 323
300 301 303 304 308 310 316 318 314 316 316 318 319 320 317 320 318 319 320 321 320 321 319 321 320 321 321 320 319 319 318 317 316 315 313 313 311 309 309 310 308 307 307 306 307 303 302 300 295 295 292 291 291 291 291 291 290 292 292 292 291 292 290 292 291 293 295 296 296 295 297 296 295 296 298 299 307 314 321 322 322 322 324 323 323
299 299 302 306 308 308 308 311 311 314 314 316 316 316 316 315 316 315 319 317 318 319 318 319 319 317 318 318 318 318 317 316 315 314 313 312 311 310 310 308 307 306 306 304 304 303 300 299 296 295 292 291 290 290 289 290 290 291 291 291 291 291 290 291 291 292 295 295 295 296 297 297 296 295 298 295 298 304 315 319 321 321 322 322 323
299 299 299 302 304 307 309 310 309 309 311 312 311 311 313 313 313 313 314 314 317 316 317 316 317 317 316 317 316 316 316 315 314 313 314 312 311 311 308 308 306 306 305 303 303 303 300 299 295 293 294 293 290 289 289 289 290 290 289 289 289 290 290 291 291 291 291 292 293 294 296 296 296 300 296 297 298 298 308 314 318 321 322 321 321
298 298 299 300 300 302 303 304 307 309 309 309 310 310 311 311 311 311 312 313 312 312 313 314 315 313 313 315 315 315 316 314 313 312 312 312 312 311 309 307 305 305 304 302 302 300 298 298 297 293 292 292 290 290 289 288 289 290 289 289 289 288 289 290 291 293 290 290 292 293 294 296 296 296 296 295 295 296 297 306 313 314 311 314 319
297 298 298 299 300 300 301 301 302 305 309 309 309 310 311 311 311 310 311 311 311 311 312 312 310 312 313 312 313 313 312 313 312 311 312 311 310 309 308 307 305 304 303 301 299 296 295 295 297 294 290 291 291 290 290 289 289 289 289 288 287 288 289 289 291 290 289 290 291 293 291 293 295 296 295 293 293 294 296 297 298 297 298 309 316
296 297 297 297 298 299 299 300 300 302 306 309 309 310 310 308 310 309 311 309 309 309 310 308 310 311 310 311 312 312 312 312 311 311 311 309 308 307 307 306 305 304 303 300 299 296 296 294 294 294 292 290 289 288 287 288 288 287 287 288 287 286 287 288 289 290 290 289 289 290 290 291 292 293 293 294 293 293 295 295 294 295 294 302 311
295 295 296 296 296 297 297 297 298 299 301 305 306 307 307 305 307 307 305 306 306 307 309 308 309 307 308 309 310 310 310 310 309 309 310 308 308 306 305 303 304 304 302 302 301 299 298 297 296 294 294 290 288 286 287 289 287 287 285 285 287 286 288 289 288 289 289 288 287 290 290 289 289 292 293 293 291 291 292 294 294 294 295 294 301
293 294 294 295 295 296 296 296 297 298 298 300 303 304 302 302 304 302 303 303 307 307 307 306 306 307 306 305 304 305 306 307 307 308 307 307 307 305 304 304 302 302 301 300 300 298 296 295 294 293 292 292 290 288 288 290 286 285 285 284 285 286 287 287 288 288 288 288 288 289 289 289 288 289 291 290 290 290 291 291 292 292 293 294 296
293 293 294 294 294 294 295 295 296 296 297 297 299 300 301 301 302 300 301 300 300 300 302 301 303 304 304 303 304 304 305 306 305 305 307 306 305 304 303 301 300 300 299 299 298 297 296 295 294 295 292 290 289 287 288 290 286 284 282 283 281 284 286 287 287 288 288 288 288 288 289 288 289 288 288 289 289 289 289 288 289 290 290 292 294
292 293 293 293 294 294 294 294 295 295 295 296 297 296 298 298 299 299 300 300 298 298 299 299 299 300 302 300 301 299 300 300 300 301 303 304 304 303 301 299 299 299 299 298 297 296 295 294 293 293 294 292 289 289 289 290 287 286 283 285 281 281 280 284 287 286 288 288 288 288 287 289 288 287 287 288 288 288 288 287 287 288 289 290 292
292 292 292 292 293 293 293 294 294 294 294 295 296 296 297 297 297 298 297 296 297 297 297 297 297 296 298 299 299 297 298 298 298 298 299 299 298 299 300 299 298 297 297 297 296 297 297 296 295 294 292 294 292 290 288 289 288 289 287 281 280 281 281 281 281 283 283 287 287 287 288 288 288 288 287 287 287 288 288 287 287 286 287 287 289
291 292 292 292 292 293 293 293 294 294 294 294 295 295 295 295 295 294 293 293 293 293 293 293 294 295 295 296 298 297 298 296 295 297 296 297 297 297 297 298 295 295 295 296 297 296 295 295 294 294 293 293 294 292 289 289 290 289 287 285 285 284 283 281 284 282 281 285 286 287 287 287 287 287 287 287 287 287 288 288 287 287 287 287 287
290 291 292 292 292 292 292 293 293 293 294 293 294 294 293 293 293 292 292 292 291 292 292 292 293 293 294 294 295 296 296 298 298 296 296 294 295 294 295 296 295 293 292 293 294 295 296 295 295 294 294 294 292 291 290 290 289 289 289 288 286 284 282 284 282 283 282 283 283 285 286 286 286 286 287 287 288 287 287 288 288 288 287 287 287
289 291 291 292 292 292 292 292 292 292 292 293 293 293 292 292 291 291 291 291 291 290 292 292 292 292 293 292 293 293 294 295 296 296 296 296 295 295 293 293 294 293 292 292 293 293 293 294 294 294 294 293 292 291 291 290 289 289 290 289 288 288 284 283 283 283 283 283 283 282 282 284 285 285 286 287 288 287 287 287 288 287 287 287 287
289 289 289 290 291 291 292 292 292 292 292 291 291 291 292 291 291 291 290 291 291 291 291 292 291 292 291 292 292 292 293 293 293 294 294 294 294 295 294 294 293 294 292 291 290 290 290 290 291 292 292 292 292 292 292 291 289 290 289 288 288 288 288 286 284 283 284 281 284 282 283 282 283 284 286 287 288 287 288 288 288 288 287 287 287
288 288 288 289 289 290 290 290 290 291 291 291 291 290 291 291 290 290 289 290 290 290 290 290 290 290 290 290 290 291 291 291 292 292 292 292 292 293 293 294 293 293 292 291 290 289 289 288 289 290 291 292 293 292 291 292 291 291 290 291 289 287 285 285 284 284 284 284 284 284 281 282 283 285 287 287 287 288 288 288 287 287 288 288 288
287 287 288 288 288 288 289 289 289 290 290 290 290 290 290 290 289 289 289 288 289 289 288 288 289 289 289 289 289 289 290 290 290 290 291 291 291 291 291 292 292 292 292 292 292 292 291 290 289 288 288 289 289 291 291 292 291 291 290 290 289 289 288 287 285 284 285 285 284 284 283 283 284 284 284 287 288 288 288 286 286 287 288 288 288
Wind_Speed
7 12 10 14 16 17 19 18 17 17 17 17 16 16 15 14 14 13 13 13 13 13 13 13 12 11 11 10 9 9 8 9 9 8 7 7 8 8 8 9 10 11 11 10 11 12 11 10 10 9 10 10 9 9 9 10 9 9 9 9 9 9 10 10 10 10 10 10 11 10 9 9 11 12 11 11 12 13 12 11 9 7 5 6 10
12 11 10 10 17 16 19 19 19 18 17 17 17 17 16 14 14 13 13 13 13 14 14 13 12 12 11 10 10 9 9 9 9 8 7 7 7 8 8 10 10 10 10 9 11 11 10 9 9 9 8 9 8 8 8 8 8 8 8 8 7 8 8 9 9 10 10 10 10 10 8 9 10 12 12 11 12 13 11 11 11 6 3 9 10
10 10 10 11 17 17 17 18 19 19 18 17 17 16 16 15 14 13 13 13 14 14 14 13 13 12 11 11 10 10 9 9 9 8 8 7 8 9 10 10 10 10 9 9 11 10 9 8 8 8 8 8 8 7 8 8 7 7 6 6 7 7 8 8 8 8 9 9 8 8 8 8 9 10 11 13 13 12 11 11 10 8 6 11 10
12 10 9 12 16 16 17 17 18 18 17 16 16 16 13 14 15 14 14 13 14 14 14 13 13 12 12 11 11 10 10 10 9 9 9 9 10 10 10 10 10 10 9 8 9 8 8 7 8 8 8 8 7 7 7 7 7 6 6 6 6 6 7 7 7 7 7 7 7 6 3 3 4 9 10 12 12 12 9 10 11 11 11 11 11
12 10 10 10 11 13 17 17 18 17 16 17 15 14 15 14 14 15 15 14 14 14 14 13 13 12 12 11 11 11 10 10 10 10 10 11 11 10 9 9 9 8 8 7 7 6 7 7 7 7 8 8 8 7 7 7 6 6 6 5 5 5 6 6 7 6 6 5 5 4 3 3 3 7 10 11 12 10 10 11 12 12 12 11 12
10 10 10 10 10 11 16 17 17 17 17 18 17 16 16 15 15 15 15 16 16 15 13 13 12 12 12 11 11 11 12 11 12 11 11 12 10 10 9 9 8 7 7 6 6 5 5 5 6 6 7 7 7 7 7 7 6 6 5 5 5 5 5 6 6 6 5 4 3 1 3 3 2 4 10 11 11 10 10 11 12 12 12 12 12
11 9 10 10 9 10 15 17 18 17 18 18 19 17 17 16 15 16 15 16 15 15 14 13 13 12 12 11 12 12 13 14 14 14 13 13 12 10 8 7 6 6 6 5 4 4 4 5 5 6 6 6 6 6 6 6 6 6 5 5 5 5 6 6 6 5 5 3 1 2 3 3 3 3 9 10 11 13 12 12 12 13 13 14 13
7 8 10 10 9 10 15 16 18 16 18 19 18 18 17 17 16 16 15 15 14 13 14 13 13 13 12 12 13 13 14 15 15 13 12 11 11 9 7 7 6 5 4 4 4 4 4 4 4 5 6 6 6 5 5 6 6 5 5 4 4 5 6 6 6 5 4 3 4 4 4 3 3 3 9 10 10 13 13 13 12 12 12 13 10
7 8 9 9 9 13 15 16 17 18 19 19 17 16 17 17 16 16 16 15 14 14 13 13 12 12 13 13 14 14 15 14 13 12 13 12 10 9 8 6 6 4 4 3 3 2 4 3 3 4 5 5 5 5 5 5 5 5 4 4 4 4 6 6 6 5 3 3 4 4 4 3 2 4 8 11 12 12 13 10 10 12 12 10 9
7 7 8 8 8 13 15 16 17 19 19 17 17 16 18 18 16 16 16 16 15 14 13 13 13 12 12 14 14 15 14 12 11 11 12 11 10 9 7 6 4 3 0 2 2 3 2 3 3 4 4 4 4 4 4 4 4 4 4 4 4 5 6 7 6 4 3 4 4 4 2 3 2 3 9 11 12 11 11 10 7 7 6 9 9
8 8 8 8 8 13 15 15 16 16 18 17 17 16 17 17 17 17 17 16 16 15 14 13 13 13 12 14 14 13 13 13 12 12 11 11 10 9 7 5 4 2 1 1 2 2 1 2 2 3 4 4 3 3 3 4 4 4 4 4 5 6 7 7 5 3 3 4 3 3 3 4 3 4 9 10 11 11 10 9 8 8 9 8 9
8 8 8 8 10 13 14 15 15 16 16 16 17 17 18 17 17 17 17 16 16 15 14 13 12 12 12 14 13 14 13 13 14 12 11 10 10 8 7 5 3 4 2 1 1 2 2 2 2 3 3 3 2 3 3 3 3 4 4 5 6 7 7 7 5 5 4 4 4 2 3 3 3 5 9 7 8 8 8 8 8 8 8 7 7
8 8 8 8 9 13 15 15 15 16 16 16 18 18 18 17 17 17 17 16 16 16 15 13 13 13 13 14 15 14 14 13 13 13 11 11 10 9 7 6 6 4 4 3 3 3 3 3 2 2 3 3 2 2 3 3 3 4 4 5 7 7 7 7 4 5 4 4 3 3 3 2 2 7 7 6 6 5 6 6 6 7 7 6 5
9 9 8 9 9 13 16 15 15 16 16 16 19 17 17 18 17 17 17 16 15 15 15 14 13 13 12 15 15 14 14 14 13 13 12 11 10 8 8 3 6 7 6 6 5 4 3 4 3 3 3 3 2 2 2 3 3 4 4 6 8 8 7 6 5 4 4 4 3 3 3 1 1 5 5 5 5 5 5 4 4 4 5 5 4
11 10 9 9 9 11 16 16 15 16 15 16 17 16 17 17 17 16 16 15 14 13 13 13 13 12 13 15 15 15 14 14 14 13 12 11 10 9 8 7 7 7 6 6 6 5 5 4 4 3 3 3 3 3 3 3 4 4 5 7 8 8 7 4 4 3 4 4 3 4 3 3 2 6 6 5 5 4 3 4 4 3 3 3 4
9 10 8 9 9 10 11 14 16 16 16 16 16 16 16 16 17 16 16 15 14 13 12 12 11 11 12 15 15 15 15 15 14 13 12 12 11 10 9 8 8 8 7 6 6 6 5 5 4 4 3 3 3 3 3 3 3 4 5 7 7 7 7 5 4 3 4 4 3 3 4 2 8 8 6 6 5 4 4 4 4 3 3 2 2
5 7 9 8 9 9 11 11 12 17 16 16 16 17 16 16 16 16 16 15 15 14 12 12 11 10 12 12 13 14 13 15 14 13 12 11 12 10 9 9 8 8 7 7 6 6 6 6 5 4 3 3 3 3 3 3 4 4 5 6 6 7 7 6 5 3 4 3 3 3 3 3 6 7 7 7 6 5 4 3 3 3 2 2 3
5 7 9 9 9 9 10 10 11 11 11 13 15 17 16 17 17 16 15 15 15 14 14 12 11 10 11 12 12 12 10 12 13 12 11 10 10 9 9 10 9 9 8 8 7 7 7 6 5 4 4 3 3 3 3 4 4 4 5 6 6 7 7 7 4 3 4 3 3 2 2 4 6 6 7 6 6 5 4 3 3 2 2 3 3
4 6 7 8 9 8 9 9 10 10 11 10 10 13 17 17 17 16 15 15 15 14 13 13 12 11 12 11 11 11 10 12 12 11 10 10 9 9 9 9 10 10 9 8 8 8 7 7 6 5 5 4 3 3 3 3 4 5 6 5 6 6 8 5 4 4 3 4 2 3 1 4 5 6 6 6 6 5 5 4 3 3 3 2 4
3 4 5 6 8 9 8 9 10 11 10 10 10 10 14 16 17 17 16 15 15 14 13 12 12 12 12 12 11 9 9 10 12 10 11 10 10 8 9 8 10 10 10 9 9 9 8 8 7 6 6 5 4 3 3 3 4 5 5 5 6 7 5 4 4 4 3 2 1 2 3 3 5 5 6 5 5 5 5 5 5 4 3 4 4
2 4 4 5 6 9 10 9 10 11 11 11 10 10 11 14 14 16 16 15 14 14 13 13 12 12 12 11 11 9 7 7 9 8 11 8 10 11 10 9 10 10 10 10 10 10 9 9 8 8 7 6 5 4 3 3 4 5 5 5 5 6 3 4 4 3 2 1 2 2 3 1 4 5 5 5 6 6 6 7 7 7 6 6 5
6 5 4 5 6 7 10 10 8 11 10 9 8 8 8 11 11 10 10 12 12 12 11 9 9 7 11 10 7 7 7 6 7 8 8 8 9 12 11 10 10 10 9 10 11 11 10 10 9 9 8 7 6 3 2 3 3 5 5 4 4 4 3 4 3 3 2 2 2 3 4 5 4 5 5 6 6 6 6 5 5 5 5 6 6
6 6 6 7 8 8 8 9 9 9 9 9 7 7 8 8 9 9 9 10 9 10 8 8 7 8 7 7 7 6 7 6 7 7 7 10 10 12 11 10 10 10 9 9 9 10 10 10 10 9 8 7 4 3 1 1 1 3 3 3 3 4 3 3 3 3 2 1 1 4 4 4 5 5 6 6 6 6 6 6 7 7 6 3 4
9 9 9 6 7 7 8 9 9 9 9 8 7 7 7 7 8 7 7 8 8 8 8 7 7 7 7 7 6 6 6 6 8 11 9 7 7 10 11 11 10 9 9 7 7 8 10 10 10 9 6 4 3 2 2 1 2 1 2 3 3 3 4 3 3 3 2 1 1 4 4 2 6 6 6 7 7 7 7 7 7 7 5 6 6
9 4 4 7 8 8 7 8 8 8 9 8 8 8 8 7 7 7 7 7 7 7 7 7 7 7 7 6 6 6 6 5 6 5 5 5 5 5 5 6 4 4 6 4 4 4 5 4 4 5 4 4 3 3 2 2 2 2 1 1 3 3 4 3 4 3 2 1 0 2 2 2 6 7 8 8 8 8 8 8 6 5 6 5 5
2 5 10 8 8 8 8 8 8 8 10 9 9 7 7 7 8 7 7 7 7 7 6 6 6 7 6 6 5 6 5 5 5 6 5 5 5 5 5 4 4 4 3 5 3 4 4 4 4 5 4 3 3 3 3 3 4 2 2 2 2 3 4 4 4 4 3 2 1 1 2 3 3 7 9 9 9 9 8 7 8 7 5 6 4
8 10 8 8 8 8 8 6 8 8 9 8 7 7 7 7 7 7 7 7 7 7 6 6 6 6 6 6 6 5 5 5 5 5 6 5 6 5 5 5 5 4 3 6 5 4 5 5 4 4 3 3 2 2 2 2 2 3 2 2 2 3 3 4 3 4 3 3 2 1 2 2 4 6 10 10 9 10 9 11 8 7 7 5 6
5 10 8 8 8 11 10 9 9 9 9 8 8 8 7 7 7 7 7 7 7 7 6 6 5 6 7 6 7 7 7 5 5 6 5 5 5 6 5 5 4 5 4 6 6 4 5 5 4 4 4 3 4 3 3 2 2 1 2 3 2 3 3 3 3 3 3 3 1 2 2 2 4 6 11 10 11 11 11 10 9 11 8 8 7
8 9 8 7 10 9 8 10 9 9 7 8 9 8 7 7 7 7 8 7 6 7 7 6 6 6 6 7 6 7 6 6 7 7 5 6 5 6 5 6 5 5 5 5 6 5 5 5 5 5 4 4 4 4 3 4 3 2 3 4 3 3 3 2 3 3 2 2 1 1 2 2 3 5 10 12 12 12 11 12 12 9 10 9 9
13 9 5 9 7 6 9 12 11 10 9 7 7 7 7 8 8 8 8 7 6 6 6 6 6 6 6 6 7 7 7 7 6 6 7 6 6 6 6 6 6 5 6 6 5 6 6 4 5 5 5 5 4 5 3 5 4 4 3 4 4 5 4 4 4 4 3 2 2 1 3 3 3 3 7 12 12 13 12 12 10 11 11 10 8
6 5 5 5 4 6 9 10 9 7 7 8 7 7 6 8 8 6 6 7 6 5 5 5 5 6 6 6 6 6 6 6 6 7 6 6 6 6 6 6 6 6 6 6 5 6 5 6 6 6 6 5 6 4 5 5 5 4 4 4 5 4 4 3 3 3 3 4 3 2 1 3 3 3 4 6 11 13 12 13 13 13 12 11 11
2 2 2 1 3 7 8 7 7 7 7 7 6 7 7 7 6 5 6 6 6 5 5 5 5 5 5 6 6 6 5 6 7 6 6 6 6 6 5 6 6 5 6 6 6 5 5 5 4 4 4 4 5 4 4 5 5 5 4 4 3 4 5 4 4 4 4 4 3 3 2 1 3 2 3 4 8 11 12 12 12 13 13 12 12
4 2 3 5 5 4 4 4 4 5 7 8 7 6 5 6 6 6 5 5 5 5 6 5 5 5 5 6 7 7 6 6 6 7 7 6 6 6 6 6 6 6 5 5 5 4 3 3 3 2 3 4 4 5 3 4 5 5 5 5 4 5 4 4 5 4 4 4 5 4 3 1 1 2 1 2 2 3 5 9 13 13 13 13 14
7 7 6 2 1 2 2 3 5 7 7 5 4 6 6 6 5 6 6 5 5 5 5 5 5 6 6 6 7 6 6 6 6 6 6 6 6 6 7 6 6 5 5 5 6 5 5 4 4 3 4 4 5 5 5 6 6 4 5 5 5 6 5 5 5 6 4 5 5 4 4 2 1 1 1 1 1 3 4 5 6 11 13 14 14
10 11 10 6 5 3 1 3 3 4 4 4 6 6 4 5 6 6 6 6 6 6 6 6 6 6 6 6 6 6 7 6 6 7 7 6 6 6 6 7 6 5 6 6 6 6 6 6 5 5 3 3 4 4 5 6 5 7 7 6 7 6 4 6 5 5 5 5 5 4 5 4 3 3 2 1 1 2 3 4 6 8 13 14 13
13 9 9 9 10 8 6 4 2 1 1 1 1 2 3 3 4 5 5 4 6 6 6 6 6 5 6 6 6 7 7 7 7 6 7 7 7 7 7 6 6 6 6 5 5 6 6 5 5 6 5 5 4 6 3 5 5 6 5 5 6 5 6 5 5 5 6 5 5 4 5 5 4 4 4 3 3 2 3 4 5 7 8 10 12
12 13 11 11 12 11 11 9 6 4 3 4 3 3 2 3 2 2 3 4 5 6 5 5 5 6 6 6 6 6 6 6 6 6 7 7 7 7 6 7 6 7 6 6 6 6 6 6 5 5 6 7 7 6 5 5 6 5 4 4 4 4 5 6 6 6 4 4 5 5 5 5 4 5 4 5 5 4 3 4 5 7 7 7 10
12 12 11 10 9 9 9 10 9 8 6 5 5 4 4 5 5 5 4 4 3 2 3 3 4 4 4 6 5 6 6 6 6 6 6 6 6 6 5 6 6 6 6 6 7 5 5 6 7 6 6 5 6 7 7 4 3 4 4 5 5 4 5 6 6 4 5 6 6 7 7 5 5 6 6 4 4 4 3 4 4 2 2 3 7
11 12 13 11 11 11 10 12 12 10 8 7 6 6 6 6 6 7 7 6 6 5 4 4 3 3 3 3 3 4 4 5 5 6 6 6 6 5 5 5 6 6 6 6 4 4 4 5 7 6 4 6 6 6 6 4 4 4 5 6 4 4 5 5 5 4 6 7 7 6 3 6 6 6 4 4 4 4 4 4 3 3 3 5 6
11 12 14 14 13 12 11 12 11 9 8 8 7 7 7 7 7 6 8 7 6 6 6 4 3 4 3 4 3 4 3 4 4 5 5 5 5 5 5 4 4 5 6 6 5 6 8 7 7 7 7 4 1 3 3 4 1 1 4 5 4 4 5 4 4 5 6 6 4 3 6 7 7 4 5 6 5 4 4 4 4 5 4 5 7
13 13 14 13 13 11 13 13 9 10 9 8 8 7 7 6 6 6 5 5 4 4 6 6 6 5 5 4 2 2 2 3 3 4 5 4 4 3 3 3 3 4 5 7 8 9 8 7 5 4 6 5 4 2 3 4 4 2 2 3 6 4 4 4 6 7 7 4 5 7 8 7 5 5 7 6 5 5 5 5 5 5 6 5 6
12 13 13 11 11 13 13 11 11 11 10 7 6 7 5 3 5 3 5 5 7 7 6 6 5 5 5 4 3 2 2 1 1 1 2 3 3 3 4 5 4 5 5 2 1 1 2 3 3 3 3 6 6 5 4 6 1 5 3 3 4 6 5 5 6 7 5 5 7 7 7 6 7 8 7 6 6 6 6 6 5 5 5 5 5
10 12 10 13 13 12 11 10 10 10 10 10 9 6 5 5 5 3 3 4 3 3 5 4 5 5 5 5 4 3 3 2 2 1 1 0 0 1 2 1 2 2 2 3 3 4 5 5 5 6 4 2 3 2 5 7 6 2 2 2 5 3 4 6 7 7 6 7 7 8 8 6 9 7 6 6 7 7 6 6 6 6 6 6 6
12 13 13 12 10 11 10 10 10 10 10 10 8 7 5 5 6 6 7 8 4 5 7 9 10 9 8 5 6 5 3 3 3 2 2 1 0 1 1 2 3 3 4 4 4 5 3 4 5 7 5 4 3 6 7 8 5 6 4 7 3 1 6 8 11 6 8 9 9 10 5 8 7 5 5 8 8 7 7 7 8 8 8 7 7
11 11 11 10 8 10 9 9 9 9 9 10 9 7 9 10 8 8 8 6 8 10 9 9 8 6 7 8 7 4 4 3 3 3 3 3 2 1 1 0 1 2 3 3 5 7 6 6 6 5 6 8 8 5 4 6 8 8 6 2 2 2 6 5 2 6 4 7 9 9 8 8 7 8 7 7 6 8 8 8 9 7 8 8 8
11 9 8 9 9 10 11 10 10 10 10 10 9 9 9 9 10 9 9 7 8 8 9 7 8 8 6 4 7 7 6 4 3 3 3 2 3 2 1 1 1 2 3 4 4 3 3 5 7 7 8 7 8 6 5 4 9 9 7 4 4 3 1 3 1 7 1 5 6 6 7 8 7 6 7 8 9 9 8 9 7 9 9 8 7
8 6 8 10 11 10 10 10 10 10 10 11 11 8 9 8 8 7 6 6 6 4 3 4 5 6 6 9 7 8 7 7 7 6 4 3 3 3 2 1 1 1 2 2 3 5 5 5 4 5 7 7 5 8 8 6 3 6 7 9 7 3 3 1 4 3 8 2 5 7 9 6 5 6 8 9 9 8 7 7 8 9 8 7 8
6 7 10 10 12 11 11 11 10 10 10 10 12 10 9 8 8 7 7 7 6 4 5 5 4 5 8 8 8 8 9 8 8 8 7 7 7 6 4 3 2 2 2 3 4 4 3 3 4 5 4 4 6 8 8 6 8 5 8 12 11 9 5 3 3 3 4 8 7 2 4 6 6 7 7 9 10 9 8 9 10 8 8 8 8
9 10 10 9 10 10 11 12 13 12 11 11 11 11 9 8 8 7 8 6 5 6 4 6 7 7 9 8 8 8 8 9 9 9 8 8 7 6 6 6 5 4 1 3 3 3 4 4 4 4 5 6 6 7 7 7 6 8 5 7 7 11 10 9 4 3 5 5 10 4 6 2 3 6 8 10 9 9 11 11 10 9 7 8 9
5 6 8 8 8 8 11 13 13 11 10 12 12 12 11 10 10 10 10 8 8 7 7 9 8 7 8 8 7 8 8 8 8 8 9 9 8 7 7 6 6 6 4 3 3 3 4 4 5 5 5 5 5 6 8 7 7 7 7 6 6 4 5 6 6 7 7 7 13 10 5 6 8 8 10 11 12 13 11 9 8 9 10 10 9
4 7 8 8 7 9 10 13 10 10 10 11 11 12 11 11 10 10 11 11 10 9 10 11 9 10 9 8 8 7 7 8 8 8 9 9 9 8 7 7 6 5 6 5 5 4 4 4 4 4 4 5 6 6 6 6 7 7 7 6 9 9 9 9 7 6 9 10 8 10 7 7 9 9 6 10 12 12 9 7 9 10 11 10 9
Wind_Direction
216 177 182 189 181 179 177 176 173 174 167 166 164 162 161 160 153 151 152 153 152 150 147 145 144 141 138 137 133 130 132 132 128 120 112 113 118 116 118 111 107 109 107 100 92 94 88 84 83 80 78 76 76 76 77 76 74 74 69 66 69 67 63 61 55 60 59 59 70 68 60 68 71 82 86 82 80 75 75 72 68 65 52 66 69
177 182 181 188 181 179 178 176 174 174 169 170 166 164 163 159 154 154 156 156 154 152 150 149 148 147 146 143 141 140 140 139 134 126 117 114 110 122 125 116 111 109 106 100 90 84 80 77 78 78 78 77 76 78 82 81 81 82 80 76 71 67 60 60 62 65 59 56 55 57 50 66 72 78 82 82 78 75 72 71 68 60 52 73 72
147 172 178 187 182 177 178 177 176 174 173 169 168 166 164 155 156 158 159 159 156 156 154 152 152 152 151 150 148 146 146 144 141 134 128 119 119 121 119 115 110 110 106 96 84 78 76 75 74 73 73 75 74 73 74 76 72 67 66 68 61 56 59 55 56 58 54 41 34 31 28 44 66 70 78 82 81 76 74 73 68 66 68 73 74
151 172 176 183 184 180 177 177 177 175 174 171 169 167 162 154 158 160 161 163 161 159 158 156 156 157 155 154 153 153 152 150 148 142 131 128 121 116 115 115 117 115 115 100 84 74 64 62 62 65 66 65 69 70 70 69 67 65 56 54 54 52 57 54 51 43 30 28 27 37 25 8 51 85 86 82 79 73 69 81 76 68 69 67 71
156 163 175 180 183 183 179 176 177 175 173 172 170 164 162 161 160 163 163 163 164 164 162 161 162 161 160 161 158 155 152 149 149 141 132 123 120 116 115 115 118 121 105 97 91 77 63 61 60 63 63 62 61 63 66 67 66 58 51 41 36 40 47 47 41 30 18 10 22 25 26 5 28 88 94 92 87 78 70 67 68 69 66 67 65
158 162 170 178 182 183 181 177 178 173 173 173 170 168 165 163 164 169 166 165 168 167 165 167 167 166 167 162 158 155 152 148 138 135 127 124 121 122 126 138 130 118 112 99 89 81 65 61 59 60 63 60 59 59 60 62 63 61 48 33 21 16 38 38 32 20 348 12 31 35 29 17 32 61 96 101 95 89 87 77 71 61 60 63 62
158 163 168 176 180 183 181 178 180 174 174 173 171 169 166 166 167 168 169 171 170 169 169 171 172 173 170 163 160 160 149 143 140 138 137 134 131 126 123 107 107 102 97 101 104 83 74 58 64 61 61 59 59 60 59 60 57 54 48 35 16 2 19 33 25 1 339 355 94 110 77 48 50 78 91 85 90 90 84 84 78 66 55 52 54
153 164 172 173 176 183 180 179 180 176 176 175 172 171 168 168 168 170 172 174 173 173 173 174 175 176 172 168 161 158 153 148 141 139 136 131 134 129 117 119 116 136 128 108 91 85 70 68 62 68 65 59 57 56 56 56 53 50 47 38 24 6 9 23 10 359 1 82 116 109 107 96 85 83 94 89 84 84 81 77 74 68 60 57 51
163 170 170 174 177 179 181 180 181 179 178 176 172 172 171 170 169 170 175 175 174 177 178 179 181 181 177 168 163 164 158 160 149 152 144 142 129 123 119 121 128 131 130 104 89 74 77 74 69 69 72 63 54 51 45 44 42 43 42 44 41 22 11 15 27 25 57 105 108 118 115 108 116 101 98 89 78 75 76 65 58 64 61 54 53
163 167 172 174 179 180 181 181 181 181 181 175 174 174 173 173 172 172 176 177 177 177 182 183 185 186 178 172 167 170 170 161 158 152 150 138 129 124 120 121 115 94 354 129 129 85 96 91 87 72 70 69 53 50 44 32 30 32 39 48 48 33 21 41 49 46 83 102 110 112 128 164 138 109 102 90 81 75 73 75 80 78 68 58 54
164 168 170 174 181 181 183 183 181 182 183 176 177 174 175 175 177 175 177 181 179 178 184 187 191 190 181 173 175 176 172 165 158 150 148 144 140 134 133 129 140 141 117 6 108 142 130 123 99 86 75 63 54 49 44 38 33 35 42 51 44 35 43 58 62 59 83 92 89 98 121 107 102 99 104 95 89 81 76 80 81 81 78 70 60
169 169 171 172 178 183 186 185 182 183 183 178 180 177 177 177 180 180 181 182 181 182 185 189 195 196 183 177 182 183 176 170 160 157 149 148 146 144 149 160 162 177 180 161 166 157 157 146 122 100 78 71 66 54 46 42 34 39 50 46 36 36 45 61 73 77 83 82 83 81 95 93 99 115 107 103 95 91 87 82 79 79 77 70 72
172 170 173 172 176 184 187 186 185 185 183 179 181 180 181 178 181 184 185 185 186 185 186 190 196 199 188 180 185 189 181 169 166 161 158 152 150 158 158 169 200 172 167 184 168 176 176 163 149 114 102 95 87 67 47 45 43 37 42 44 33 36 42 57 69 79 79 79 75 56 60 86 122 108 106 110 104 86 81 81 82 77 75 76 70
172 176 173 174 180 183 186 187 186 187 185 181 181 181 182 181 183 187 187 189 188 189 189 189 195 200 186 181 183 194 184 175 167 165 163 158 156 166 186 190 158 161 179 179 180 178 175 171 155 146 133 118 97 83 82 65 60 57 48 39 31 31 47 51 60 72 76 71 62 55 42 20 232 134 133 113 98 104 93 83 80 74 70 71 68
170 177 176 176 178 183 187 187 186 188 186 183 181 182 183 182 185 188 189 191 189 191 192 192 194 201 183 185 184 189 192 176 177 170 167 163 167 177 184 147 165 171 176 193 186 170 181 179 168 158 144 136 120 111 97 83 72 65 57 43 33 31 53 60 62 65 71 64 48 50 33 26 168 156 150 135 120 103 110 114 104 90 90 88 70
173 172 173 180 179 182 187 191 188 188 186 184 182 184 185 184 186 188 190 191 189 192 194 195 197 199 185 188 186 188 190 175 177 170 170 168 171 177 179 178 177 184 191 201 188 180 180 185 169 156 148 147 139 120 107 103 94 82 65 49 36 40 59 75 65 61 63 61 46 44 30 37 80 84 98 118 129 120 110 91 88 106 137 107 85
175 173 172 183 182 183 188 191 192 189 186 185 184 185 186 185 187 190 190 189 189 190 194 195 198 197 182 190 188 192 192 175 179 175 172 171 167 171 179 183 186 189 182 192 192 183 188 181 176 167 168 160 142 132 115 103 97 87 75 55 48 51 63 78 78 64 61 56 54 36 29 47 92 95 100 102 102 111 100 103 104 95 113 118 117
171 174 182 181 185 188 188 191 191 191 189 188 188 187 188 186 187 191 191 190 189 191 192 192 194 190 185 187 188 195 181 176 175 174 167 164 165 167 174 186 188 184 182 188 193 189 187 175 177 179 175 166 146 133 118 106 97 89 72 57 48 60 71 84 91 81 72 62 47 31 18 83 96 104 105 106 105 103 103 103 105 87 92 131 113
178 187 181 178 188 186 191 190 191 193 192 191 190 192 190 188 188 190 191 190 191 191 191 189 189 185 182 183 185 189 179 174 173 168 165 162 163 166 173 183 186 180 179 184 193 185 189 176 178 188 179 169 147 127 110 104 101 88 76 56 55 63 70 85 95 88 82 74 48 41 349 112 114 113 116 112 109 104 102 101 109 124 115 93 143
193 194 185 192 183 185 189 193 192 193 193 193 194 192 194 191 189 190 191 191 191 190 190 188 186 182 183 180 178 180 174 172 165 164 163 166 164 165 173 177 181 179 181 184 193 187 187 178 182 187 181 169 151 120 109 113 106 91 70 55 63 67 71 88 98 90 87 78 69 25 20 120 139 130 118 123 122 118 119 129 127 121 155 144 129
214 212 199 193 191 188 190 191 197 195 194 192 195 195 195 193 192 192 192 192 191 189 188 187 184 183 181 183 173 168 173 168 165 168 168 168 167 168 172 176 179 176 178 187 191 191 188 181 187 188 180 170 119 98 91 113 103 81 58 55 61 64 79 91 93 97 81 68 53 21 33 99 141 143 133 127 130 133 139 138 149 151 146 142 138
217 221 225 207 192 199 193 192 194 199 196 195 195 196 194 193 194 195 195 193 192 189 187 185 184 183 181 179 172 170 172 171 172 168 169 169 171 172 175 177 176 172 176 187 192 192 186 184 191 187 180 137 114 87 37 30 72 68 52 64 66 76 78 93 92 89 77 41 30 18 20 146 156 150 153 149 142 149 162 161 125 118 136 149 143
245 229 224 206 203 196 196 194 195 196 199 200 201 196 194 195 201 196 196 194 192 188 187 185 182 181 178 176 172 170 170 170 172 172 170 172 174 177 178 178 176 172 175 187 192 191 188 186 194 190 159 130 112 125 130 112 70 51 53 68 85 86 100 101 96 93 85 15 12 9 8 178 163 153 152 151 153 157 153 155 156 155 155 125 143
225 213 209 201 198 198 198 197 195 194 196 199 200 198 196 193 203 200 194 194 194 192 187 185 182 181 176 175 174 169 169 169 174 173 167 168 178 179 180 179 176 171 174 181 193 187 189 190 199 180 122 112 134 155 170 190 143 85 74 92 99 108 119 132 131 127 112 55 9 359 353 205 166 170 168 166 164 167 166 162 160 167 149 154 161
216 225 234 212 201 200 195 200 194 195 197 200 200 201 195 194 200 200 193 192 195 193 191 185 182 180 178 175 175 169 165 165 162 164 167 164 163 176 180 176 170 172 173 170 178 186 163 166 182 117 137 137 146 195 188 185 178 147 148 161 130 123 129 141 141 139 145 136 350 1 318 316 181 180 175 171 171 173 175 171 157 154 160 159 161
188 200 218 216 208 202 198 195 191 196 198 200 202 201 192 198 201 198 193 192 192 192 191 187 181 179 177 175 163 167 163 158 160 166 166 165 167 171 178 175 167 177 161 168 167 162 153 140 132 150 154 159 173 193 217 186 182 182 177 195 169 143 145 155 151 155 176 170 192 305 329 297 262 198 186 178 177 192 180 164 179 162 161 168 180
203 219 209 211 211 204 200 182 194 197 202 202 202 203 205 203 200 200 196 195 186 188 194 187 182 174 177 171 165 172 169 164 166 169 171 171 172 170 173 175 176 175 175 160 175 167 156 150 152 168 162 164 203 241 248 254 207 179 217 210 212 175 160 159 163 167 185 183 205 232 246 281 250 233 198 183 182 193 180 184 181 162 174 175 182
184 224 213 208 204 209 195 185 194 193 200 196 198 203 207 205 202 198 206 196 184 187 190 189 170 177 178 176 178 171 169 172 174 173 177 174 178 172 169 175 175 184 178 171 168 168 161 157 159 165 175 187 200 248 262 261 255 207 186 220 236 213 183 173 177 180 189 202 216 257 259 263 254 268 202 192 187 198 189 201 181 179 187 179 170
214 222 211 202 214 203 186 197 195 194 199 192 198 201 200 203 199 200 206 195 193 190 189 176 176 179 179 179 179 175 175 176 177 179 162 188 175 170 169 180 178 181 170 187 174 172 175 168 173 180 186 198 204 236 248 249 240 229 203 214 221 218 209 177 177 190 202 215 238 283 290 276 278 279 209 198 191 200 194 204 186 182 186 186 188
217 215 192 216 210 180 188 198 196 193 187 182 202 197 197 201 201 200 202 196 203 194 181 181 180 173 182 188 188 180 179 178 179 173 172 186 184 177 175 178 182 180 179 185 190 174 179 176 178 182 190 204 210 225 205 227 225 222 212 208 212 206 204 187 186 189 203 218 237 282 299 300 302 293 229 209 200 197 202 203 192 183 194 183 182
324 271 240 231 186 173 200 199 195 188 176 188 192 197 185 202 202 197 195 198 197 192 186 179 178 179 184 187 188 190 180 177 175 175 181 179 182 183 186 170 182 187 184 191 179 184 175 185 184 188 196 204 220 214 197 206 211 210 209 201 212 193 208 206 186 188 192 212 229 249 281 305 297 297 317 264 213 202 202 200 195 192 188 185 187
218 270 276 284 189 201 200 195 189 180 178 192 187 190 187 192 193 189 194 192 181 191 190 178 179 182 177 183 189 192 184 183 176 176 180 177 182 184 179 176 192 187 191 184 182 182 181 189 185 190 194 194 218 220 211 195 203 209 200 214 203 195 205 200 192 193 199 203 220 232 247 277 295 302 306 287 223 208 205 207 202 201 188 187 193
308 270 216 168 196 207 198 197 172 174 185 191 190 190 174 171 175 188 184 171 179 180 184 185 182 181 179 186 193 192 190 184 184 179 180 180 180 181 183 191 190 186 186 182 173 173 162 166 198 187 197 199 208 225 220 218 201 215 205 219 194 210 208 190 204 193 201 206 213 215 223 248 290 321 319 330 257 230 227 213 211 209 196 193 198
6 3 5 355 282 165 173 147 170 180 194 185 169 173 179 169 162 167 167 165 173 176 188 188 183 182 183 189 193 195 191 189 176 180 175 176 180 187 186 193 191 182 176 168 175 172 178 173 200 179 215 204 212 217 203 220 227 216 210 211 198 209 200 202 200 204 197 207 209 207 217 227 240 251 286 284 256 239 210 209 221 223 203 201 200
26 18 14 350 22 21 101 146 167 180 169 179 177 182 165 158 161 159 161 166 167 174 179 179 183 191 185 192 192 193 194 188 184 177 182 179 179 188 191 196 180 173 175 185 177 177 176 190 172 194 220 238 235 225 214 221 211 216 217 202 208 208 203 205 195 205 203 207 197 209 210 213 222 222 225 236 271 250 221 212 212 227 219 206 200
26 17 22 25 32 23 23 49 32 75 179 177 166 145 146 139 143 155 156 159 156 169 171 179 187 184 184 191 195 192 191 188 183 178 177 184 184 188 197 179 177 169 181 177 173 182 189 191 190 177 187 228 231 252 249 235 228 228 227 216 217 203 207 211 204 208 213 194 203 206 209 213 210 209 210 211 211 229 222 221 219 212 211 199 204
23 26 27 31 34 26 29 34 34 43 57 58 54 58 78 90 88 101 134 149 164 176 177 167 157 173 185 190 188 184 187 183 180 181 180 185 188 191 187 181 169 175 177 181 189 189 180 190 195 197 190 199 201 226 237 239 240 244 248 243 237 214 215 216 216 215 195 203 208 211 211 216 211 211 210 210 207 215 214 209 217 212 211 204 212
28 30 33 41 42 35 36 30 22 21 45 58 58 58 57 66 65 66 62 62 60 83 123 134 151 154 160 179 175 175 176 174 176 178 184 187 190 189 176 176 174 176 179 178 200 181 182 178 200 204 197 190 203 211 227 229 253 257 250 239 239 226 225 223 226 215 194 210 215 211 210 208 208 214 213 213 211 208 212 207 191 166 182 216 220
29 29 34 35 39 37 39 34 26 18 18 42 52 59 56 60 63 55 51 43 40 34 36 62 91 118 132 140 152 155 162 161 166 168 174 178 184 186 179 185 177 173 173 181 183 178 188 197 200 205 204 208 198 206 208 191 233 254 253 253 264 248 248 243 238 227 218 217 213 215 199 216 213 215 212 211 221 214 213 217 199 196 216 222 224
33 31 35 34 32 34 39 37 29 22 27 30 34 39 48 46 42 27 40 26 33 41 34 38 36 71 101 124 140 141 154 158 158 165 165 171 177 186 192 174 181 169 173 179 190 186 197 196 212 195 204 224 219 181 153 146 133 301 295 298 277 263 260 253 246 235 232 225 218 202 212 220 215 211 208 213 211 218 218 217 214 210 215 234 237
34 32 38 34 34 33 38 33 20 28 34 30 33 40 34 22 37 44 51 17 28 41 46 26 30 23 31 42 66 98 121 128 139 153 171 168 181 163 169 176 176 188 195 203 202 203 202 199 195 186 195 204 238 168 168 136 147 271 347 316 296 279 281 276 253 248 240 233 213 213 221 214 216 209 214 208 207 211 215 217 218 216 218 217 234
26 33 36 35 37 35 37 28 22 26 27 24 39 51 37 87 99 81 81 34 34 37 30 25 26 47 38 34 32 50 79 94 108 134 130 156 158 167 187 198 185 206 215 220 158 203 184 190 149 198 212 197 222 180 180 126 215 213 234 299 304 289 273 279 258 249 239 239 227 225 221 211 214 214 211 203 210 208 212 213 215 221 224 222 225
37 37 30 37 35 36 34 33 29 28 21 16 20 22 22 29 52 53 86 93 65 53 59 25 27 42 46 34 41 42 41 37 46 51 65 60 74 139 228 166 209 217 215 226 196 204 200 197 188 202 212 228 238 166 176 191 196 137 113 27 281 291 302 267 257 235 217 226 229 233 225 222 221 213 201 199 212 213 213 207 211 215 220 219 220
35 31 28 31 32 33 33 36 35 33 28 20 21 8 22 32 39 49 40 65 52 17 33 27 18 18 11 19 31 23 41 46 29 35 33 38 104 183 141 165 195 178 206 224 211 226 204 202 201 217 188 212 214 233 190 200 162 133 258 213 234 173 301 251 242 240 202 218 217 228 223 227 226 220 196 210 211 210 215 205 212 210 211 213 212
38 34 30 30 32 29 29 37 39 39 37 29 26 24 30 28 17 29 37 26 23 25 27 15 11 6 6 10 351 1 26 41 34 37 30 11 17 22 16 311 190 192 189 215 220 222 216 217 211 209 196 213 230 225 215 196 211 212 180 96 319 284 231 268 349 275 208 218 230 227 225 229 224 217 216 226 214 215 210 211 214 209 211 209 211
39 32 33 36 36 33 29 28 33 33 32 34 34 45 48 47 41 40 33 31 34 23 21 2 359 10 347 327 6 13 7 22 39 42 35 27 356 4 4 293 252 210 197 220 237 235 224 214 212 211 218 223 232 223 233 221 220 225 224 212 159 189 261 271 36 281 314 238 248 232 230 231 227 224 225 226 218 220 214 218 207 213 210 207 208
29 30 41 41 39 40 37 37 36 29 23 25 28 39 50 51 60 66 67 59 60 26 359 5 12 351 9 21 10 15 18 12 356 6 9 14 2 351 350 330 273 230 208 208 236 233 232 223 216 209 222 223 218 240 229 227 226 249 245 248 254 197 153 16 259 326 305 308 245 231 238 237 236 231 231 232 230 226 224 222 219 219 211 208 206
13 32 44 41 40 36 38 39 41 40 32 25 32 30 42 39 47 51 51 47 48 30 11 12 20 17 30 17 16 16 19 25 18 8 6 355 349 339 352 339 316 276 192 214 230 244 249 253 221 226 231 226 220 229 239 219 219 230 208 239 249 253 210 186 182 223 269 288 297 293 276 250 240 239 237 238 233 226 224 220 223 217 214 212 208
19 31 38 40 43 42 42 40 39 36 31 33 38 37 42 41 42 37 47 34 32 23 7 23 25 13 34 17 20 11 13 19 28 24 20 13 2 348 338 330 323 309 260 253 253 247 233 238 240 226 222 228 221 229 234 237 220 238 231 239 235 244 251 243 222 172 244 290 276 247 269 285 244 247 243 238 238 227 224 222 216 215 213 216 211
14 33 39 38 38 41 45 47 42 36 30 32 35 37 38 40 43 36 39 29 22 19 28 26 20 13 27 18 14 16 7 13 14 20 20 15 11 2 350 336 326 319 317 281 266 252 251 239 238 232 230 234 233 228 233 242 239 241 227 246 235 250 258 267 255 256 259 215 259 269 242 239 250 240 225 234 232 230 228 225 217 215 217 217 213
22 41 42 41 39 40 44 50 43 40 36 37 38 39 38 38 42 38 37 32 22 26 26 23 16 20 20 14 14 5 10 11 7 9 18 10 5 5 3 346 330 321 315 309 289 274 265 247 253 244 242 235 239 239 241 243 247 249 243 234 243 237 240 242 240 226 236 257 267 263 258 233 238 265 243 233 236 236 231 223 224 222 220 220 216